Puerto Plata, Dominican Republic

4:37 PM AST on March 24, 2017 (GMT -0400)
Puerto Plata

Weather History for MDPP - November, 2012

Change the Weather History Date:

Sunday, November 4, 2012

  Actual Average Record
Temperature  
Mean Temperature 78 °F -  
Max Temperature 84 °F 84 °F 89 °F (1997)
Min Temperature 72 °F 71 °F 37 °F (2006)
Cooling Degree Days 13    
Growing Degree Days 28 (Base 50)    
Moisture  
Dew Point 75 °F    
Average Humidity 91    
Maximum Humidity 100    
Minimum Humidity 79    
Precipitation  
Precipitation 3.50 in - - ()
Sea Level Pressure  
Sea Level Pressure 29.96 in    
Wind  
Wind Speed 1 mph ()    
Max Wind Speed 9 mph    
Max Gust Speed -    
Visibility 5.7 miles    
Events Rain    
Averages and records for this station are not official NWS values.
T = Trace of Precipitation, MM = Missing Value Source: Averaged Metar Reports

Daily Weather History Graph

Daily Weather History Graph

Search for Another Location

Airport or City:

Trip Planner

Search our weather history database for the weather conditions in past years. The results will help you decide how hot, cold, wet, or windy it might be!

Date:

Astronomy

Nov. 04, 2012 Rise Set
Actual Time 6:45 AM AST 6:06 PM AST
Civil Twilight 6:22 AM AST 6:29 PM AST
Nautical Twilight 5:56 AM AST 6:55 PM AST
Astronomical Twilight 5:29 AM AST 7:21 PM AST
Moon 10:47 PM AST (11/4) 11:18 AM AST (11/4)
Length of Visible Light 12h 06m
Length of Day
11h 21m
Waning Gibbous, 72% of the Moon is Illuminated
Nov 4
Waning Gibbous
Nov 6
Last Quarter
Nov 13
New
Nov 20
First Quarter
Nov 28
Full

Hourly Weather History & Observations

Time (AST) Temp. Heat Index Dew Point Humidity Pressure Visibility Wind Dir Wind Speed Gust Speed Precip Events Conditions
2:00 AM 74 °F - 74 °F 98% 29.98 in 5 mi Calm Calm - - Rain Light Rain
2:00 AM 75.2 °F - 73.4 °F 94% 29.95 in 5.0 mi Calm Calm - N/A Rain Light Rain
5:00 AM 73 °F - 73 °F 99% 29.96 in 5 mi Calm Calm - - Rain Light Rain
5:00 AM 75.2 °F - 75.2 °F 100% 29.95 in 5.0 mi Calm Calm - N/A Rain Light Rain
8:00 AM 74 °F - 73 °F 97% 29.99 in 4 mi Calm Calm - - Rain Light Rain
8:00 AM 73.4 °F - 73.4 °F 100% 29.98 in 3.7 mi Calm Calm - N/A Rain Light Rain
9:00 AM 78.8 °F - 77.0 °F 94% 29.98 in 6.2 mi Calm Calm - N/A   Mostly Cloudy
10:00 AM 78.8 °F - 77.0 °F 94% 30.01 in 1.9 mi ENE 5.8 mph - N/A Rain Heavy Rain
11:00 AM 77 °F - 75 °F 92% 30.01 in 5 mi ESE 6.7 mph - - Rain Light Rain
11:00 AM 77.0 °F - 75.2 °F 94% 30.01 in 3.7 mi ESE 5.8 mph - N/A Rain Light Rain
12:00 PM 80.6 °F 86.2 °F 75.2 °F 84% 29.98 in 6.2 mi Calm Calm - N/A   Scattered Clouds
1:00 PM 82.4 °F 89.5 °F 75.2 °F 79% 29.98 in 5.0 mi ESE 5.8 mph - N/A Rain Light Rain
2:00 PM 80 °F - 76 °F 84% 29.96 in 10 mi Calm Calm - -   Partly Cloudy
2:00 PM 78.8 °F - 75.2 °F 89% 29.95 in 6.2 mi Calm Calm - N/A   Scattered Clouds
3:00 PM 80.6 °F 86.2 °F 75.2 °F 84% 29.92 in 6.2 mi Calm Calm - N/A   Scattered Clouds
4:00 PM 80.6 °F 86.2 °F 75.2 °F 84% 29.92 in 6.2 mi Calm Calm - N/A   Mostly Cloudy
5:00 PM 79 °F - 76 °F 87% 29.93 in 10 mi Calm Calm - -   Partly Cloudy
5:00 PM 80.6 °F 86.2 °F 75.2 °F 84% 29.92 in 6.2 mi Calm Calm - N/A   Mostly Cloudy
6:00 PM 80.6 °F 86.2 °F 75.2 °F 84% 29.92 in 6.2 mi Calm Calm - N/A   Mostly Cloudy
7:00 PM 78.8 °F - 75.2 °F 89% 29.92 in 6.2 mi East 9.2 mph - N/A   Scattered Clouds
8:00 PM 77.0 °F - 75.2 °F 94% 29.95 in 6.2 mi Calm Calm - N/A   Scattered Clouds
11:00 PM 75.2 °F - 75.2 °F 100% 29.95 in 6.2 mi Calm Calm - N/A   Scattered Clouds